Location: Irma
(52.9170°N, 111.2330°W)
Time: 21:28:30
(UTC-07:00)

Daily predictions for brighter satellites

Satellite Brightness Start Highest point End
(mag) Time Altitude Azimuth Time Altitude Azimuth Time Altitude Azimuth
BREEZE-M DEB (TANK) 3.3 18:25:42 10° W 18:28:06 45° S 18:32:45 10° ESE
COSMO-SKYMED 1 2.7 18:25:49 10° NNE 18:30:08 57° E 18:34:24 10° S
Resurs 01 Rocket 2.5 18:26:49 10° ESE 18:30:38 29° ENE 18:34:28 10° N
Thor Agena Rocket 3.5 18:27:38 10° NNE 18:32:45 86° ESE 18:37:48 10° SSW
Cosmos 1190 Rocket 4.1 18:31:55 10° S 18:36:58 55° ESE 18:42:04 10° NNE
Cosmos 1340 2.7 18:34:30 10° N 18:38:16 57° ENE 18:42:00 10° SSE
ALOS 2.6 18:35:05 10° SE 18:39:30 44° ENE 18:43:57 10° N
Cosmos 2181 Rocket 4.1 18:33:23 10° N 18:39:32 56° ENE 18:45:43 10° SSE
Cosmos 2333 Rocket 3.1 18:35:43 10° NNW 18:40:50 31° NE 18:45:56 10° ESE
FREGAT/IRIS 2.8 18:37:58 10° SSE 18:40:58 51° ENE 18:44:00 10° N
Cosmos 2208 Rocket 4.4 18:36:11 10° NNW 18:41:30 48° NE 18:46:44 10° SE
SL-16 R/B 3.5 18:36:58 10° NW 18:42:22 46° WSW 18:47:44 10° S
Cosmos 2082 Rocket 3.7 18:38:05 10° WSW 18:43:20 36° NW 18:48:38 10° NNE
NOSS 5 (C) 4.1 18:41:02 10° SW 18:44:15 88° SE 18:47:21 10° NE
Spot 2 Rocket 3.9 18:40:54 10° SE 18:45:38 42° ENE 18:50:26 10° N
Helios 1A 4.1 18:42:30 10° ESE 18:45:49 23° ENE 18:49:08 10° N
Okean 2 Rocket 3.3 18:41:22 10° SSW 18:45:49 78° WNW 18:50:16 10° N
USA 229 DEB 3.9 18:39:08 10° NW 18:46:11 67° NE 18:53:22 10° ESE
USA 229 3.9 18:39:13 10° NW 18:46:17 66° NE 18:53:28 10° ESE
Resurs 1-3 4.2 18:44:18 10° SE 18:48:18 35° ENE 18:52:18 10° N
Helios 1B rocket 4.2 18:49:46 10° ENE 18:54:33 - SE 18:51:11 12° E
Meteor 1-28 Rocket 3.1 18:48:30 10° NNE 18:52:20 78° ESE 18:56:09 10° S
NOSS 3-4 (A) 4.4 18:48:43 10° W 18:54:53 46° NNW 19:01:24 10° NE
NOSS 3-4 (C) 4.4 18:48:49 10° W 18:55:00 46° NNW 19:01:31 10° NE
USA 186 3.2 18:56:00 15° E 18:56:42 17° ENE 18:58:39 10° NNE
CZ-4B DEB 4.4 18:56:49 15° ENE 18:57:22 15° ENE 18:59:17 10° NNE
Genesis I 3.2 18:54:16 10° NW 18:58:15 86° SW 19:02:11 10° SE
NOSS 3-1 (A) 4.4 18:51:39 10° NW 18:58:22 47° NNE 19:04:57 14° E
NOSS 2-2 (E) 4.0 18:54:16 10° SW 18:58:36 74° NW 19:04:02 10° NE
Cosmos 2322 Rocket 4.0 18:53:36 10° NW 18:58:38 34° WSW 19:03:38 10° S
HJ-1C 3.5 18:56:03 10° SSE 18:59:21 54° ENE 19:02:41 10° N
Cosmos 1709 Rocket 4.0 18:54:57 10° S 19:01:03 62° E 19:07:07 10° NNE
Envisat 4.1 18:58:41 12° ESE 19:02:12 24° ENE 19:06:13 10° N
SJ-6B 2.8 18:58:43 10° SSE 19:02:43 88° W 19:06:38 10° NNW
ATLAS 2AS CENTAUR R/B 3.9 18:55:52 10° WNW 19:03:24 39° N 19:10:18 12° ENE
Cosmos 1954 Rocket 4.2 18:58:44 10° S 19:03:42 47° ESE 19:08:44 10° NE
Cosmos 2151 Rocket 3.6 19:00:27 10° S 19:04:58 84° ESE 19:09:32 10° NNE
FengYun 1-2 T 4.2 18:59:55 10° SSE 19:05:23 72° ENE 19:10:54 10° NNW
Okean 1 Rocket 3.6 19:01:39 10° SSE 19:05:47 37° E 19:09:55 10° NNE
USA 215 3.4 18:59:49 10° ENE 19:06:19 76° NNW 19:12:51 10° WSW
ERS-1 Rocket 4.4 19:05:24 15° E 19:07:25 19° NE 19:10:53 10° N
Meteor 1-19 Rocket 4.2 19:01:47 10° NNW 19:07:29 82° ENE 19:13:14 10° SSE
SAR-Lupe-4 4.1 19:05:17 10° SE 19:08:35 36° ENE 19:11:55 10° N
Meteor 1-20 Rocket 4.4 19:03:30 10° SSW 19:09:21 82° WNW 19:15:15 10° NNE
deb Kosmos-1763 4.4 19:06:58 10° SSW 19:10:45 72° WNW 19:14:34 10° NNE
FENGYUN 3A 3.6 19:07:00 10° SSE 19:12:25 80° ENE 19:17:53 10° NNW
TSX-5 3.7 19:10:20 10° S 19:13:21 42° ESE 19:15:49 15° NE
BREEZE-M DEB (TANK) 3.6 19:11:22 10° WSW 19:13:23 24° SSW 19:16:50 10° SE
Cosmos 1238 Rocket 2.2 19:10:47 10° NNW 19:13:54 77° W 19:16:50 10° S
Cosmos 2322 4.2 19:09:36 10° NW 19:15:18 65° WSW 19:20:56 10° SSE
SKYMED 2 4.4 19:13:58 10° N 19:18:13 53° WNW 19:22:26 10° SW
NOSS 3-1 (C) 4.1 19:11:16 10° NW 19:18:14 58° NNE 19:24:22 18° ESE
Cosmos 405 Rocket 3.7 19:14:44 10° N 19:18:25 30° ENE 19:20:17 21° ESE
Cosmos 1025 Rocket 3.2 19:14:41 10° N 19:18:59 52° ENE 19:23:16 10° SSE
Gbstr 26 Del rocket 4.4 19:16:44 10° S 19:19:07 16° SE 19:19:28 16° SE
NOSS 2-2 (D) 4.2 19:15:22 10° WSW 19:19:39 62° NW 19:25:01 10° NE
ATLAS CENTAUR R/B 3.5 19:19:56 10° WNW 19:23:18 21° NNW 19:26:31 10° NNE
CZ-2D R/B 3.3 19:19:55 10° SSE 19:23:38 55° ENE 19:27:24 10° N
GEOS 3 Rocket 4.4 19:20:50 17° ENE 19:24:04 31° ESE 19:28:42 10° S
H-2A R/B 4.1 19:24:22 11° NE 19:25:07 11° NE 19:26:29 10° NNE
Cosmos 1939 Rocket 4.0 19:24:56 23° ENE 19:25:23 23° ENE 19:28:35 10° N
Cosmos 2285 Rocket 4.0 19:19:08 10° NNW 19:25:35 68° ENE 19:32:00 10° SE
Okean 1-7 Rocket 3.5 19:21:13 10° N 19:25:48 77° ENE 19:30:18 10° SSE
H-2A R/B 2.6 19:25:03 10° SSE 19:28:46 79° ENE 19:32:33 10° NNW
Cosmos 1536 2.9 19:26:01 10° S 19:29:52 48° E 19:33:44 10° NNE
COSMOS 2428 2.8 19:25:04 10° NNW 19:30:47 85° WSW 19:36:30 10° SSE
Meteor 1-23 Rocket 4.2 19:25:16 10° N 19:31:08 77° ENE 19:36:54 10° SSE
Cosmos 2333 4.2 19:26:19 10° NNW 19:32:05 89° ENE 19:37:51 10° SSE
Cosmos 1633 2.6 19:29:07 10° SSW 19:32:48 85° W 19:36:32 10° N
Meteor 2-4 Rocket 3.7 19:27:41 10° NNW 19:33:21 88° WSW 19:38:48 10° S
Cosmos 2237 Rocket 2.5 19:29:08 10° NNW 19:34:40 47° NE 19:37:45 25° ESE
Cosmos 841 Rocket 4.3 19:34:58 10° NNW 19:39:36 32° NE 19:41:02 27° E
Cosmos 1023 Rocket 4.3 19:34:37 10° SSW 19:39:42 70° ESE 19:44:51 10° NNE
SL-08 ROCKET BODY 4.4 19:39:09 10° S 19:45:15 65° E 19:51:23 10° NNE
Cosmos 1741 Rocket 4.1 19:42:14 10° S 19:47:17 52° ESE 19:52:22 10° NNE
NOSS 0 Rocket 3.9 19:42:15 10° NNW 19:48:26 74° NE 19:52:27 23° SE
Cosmos 2360 Rocket 3.8 19:44:20 10° NW 19:49:24 35° WSW 19:54:28 10° S
Cosmos 1818 3.6 19:45:25 10° SW 19:50:53 83° NW 19:55:44 14° NE
ARGOS 4.4 19:50:59 22° ENE 19:51:13 22° NE 19:55:16 10° N
Cosmos 407 Rocket 4.4 19:46:06 10° SW 19:51:15 52° WNW 19:56:30 10° NNE
Cosmos 1441 Rocket 4.3 19:47:49 10° N 19:50:46 30° NE 19:50:46 30° NE
Cosmos 2219 Rocket 2.1 19:45:53 10° NNW 19:51:32 84° ENE 19:55:22 21° SE
Cosmos 1763 Rocket 3.8 19:48:14 10° NNW 19:53:08 44° NE 19:54:29 36° E
Cosmos 676 Rocket 4.4 19:50:43 10° SW 19:55:52 63° WNW 20:01:07 10° NNE
Cosmos 2219 3.3 19:51:44 10° S 19:57:16 50° ESE 20:02:48 10° NE
Cosmos 332 Rocket 4.3 19:53:03 10° NNW 19:57:44 40° NE 19:58:28 38° ENE
Resurs 01 Rocket 2.9 20:02:50 10° S 20:07:00 41° W 20:11:12 10° NNW
Meteor 1-11 Rocket 4.1 20:01:44 10° SSW 20:07:33 68° WNW 20:13:31 10° N
SL-16 R/B 2.7 20:02:46 10° NNW 20:08:10 41° NE 20:09:13 37° ENE
Cosmos 1437 3.8 20:05:03 10° N 20:07:13 36° N 20:07:13 36° N
Cosmos 371 Rocket 3.8 20:04:23 10° NNW 20:08:59 39° NE 20:09:09 39° ENE
Cosmos 1140 Rocket 3.6 20:05:12 10° SSW 20:10:20 73° WNW 20:15:33 10° NNE
Cosmos 468 Rocket 4.0 20:11:51 10° NNW 20:17:06 79° WSW 20:19:38 31° SSE
ALOS 4.2 20:13:01 10° SSW 20:17:06 30° W 20:21:13 10° NNW
Cosmos 614 Rocket 4.0 20:12:46 10° SSW 20:17:51 79° WNW 20:22:58 10° NNE
Cosmos 1610 Rocket 4.3 20:14:48 10° S 20:21:00 74° E 20:27:09 10° NNE
Helios 1A 3.8 20:17:35 13° S 20:21:09 49° W 20:25:13 10° NNW
SJ-11-01 4.2 20:20:43 46° SSE 20:22:10 87° ENE 20:26:58 10° NNW
Cosmos 2333 Rocket 2.4 20:19:52 10° NW 20:25:37 72° WSW 20:28:17 33° SSE
USA 186 3.2 20:27:24 34° W 20:27:24 34° W 20:29:52 10° NNW
Helios 1B rocket 2.3 20:23:17 10° NNE 20:27:28 90° NNW 20:31:38 10° SSW
Meteor 2-8 Rocket 4.3 20:22:36 10° N 20:28:39 65° ENE 20:30:00 51° SE
CZ-4B DEB 4.1 20:29:29 38° WNW 20:29:29 38° WNW 20:31:54 10° NNW
USA 32 3.9 20:24:01 10° N 20:29:16 68° E 20:29:44 64° ESE
Okean 2 4.5 20:27:51 10° NNW 20:31:51 45° W 20:34:27 20° SSW
Terra 4.0 20:34:23 14° NNE 20:34:23 14° NNE 20:35:29 10° NNE
Cosmos 1980 3.7 20:27:34 10° NNW 20:33:14 76° WSW 20:35:02 45° SSE
Aureole 2 Rocket 4.4 20:30:17 10° NNW 20:31:55 23° N 20:31:55 23° N
Cosmos 1814 Rocket 4.0 20:29:35 10° NNW 20:34:46 74° WSW 20:36:04 50° S
Cosmos 1850 Rocket 4.3 20:32:49 10° SW 20:38:07 68° WNW 20:43:29 10° NNE
H-2A R/B 4.2 20:43:03 16° NNE 20:43:03 16° NNE 20:44:12 10° N
Envisat 3.2 20:38:53 38° S 20:40:49 68° WSW 20:45:55 10° NNW
Cosmos 1892 Rocket 4.4 20:37:54 10° NNW 20:42:06 47° W 20:43:43 31° SSW
ERS-1 Rocket 2.8 20:45:24 84° SSE 20:45:34 90° ENE 20:50:40 10° NNW
Meteor 1-12 Rocket 4.3 20:49:31 67° ENE 20:49:31 67° ENE 20:54:58 10° NNE
USA 215 3.5 20:47:09 45° ENE 20:49:07 63° N 20:55:34 10° WNW
NOSS 3-1 (A) 3.9 20:42:40 10° NW 20:50:00 82° SW 20:52:26 50° SSE
MetOp-A 4.2 20:55:52 67° NNE 20:55:52 67° NNE 21:00:41 10° NNW
SPOT 5 3.6 20:57:10 45° N 20:57:10 45° N 21:00:53 10° N
ATLAS 2AS CENTAUR R/B 3.3 20:47:59 10° NW 20:56:03 57° NNE 20:57:45 49° ENE
Cosmos 1939 Rocket 4.1 21:00:51 39° WNW 21:00:51 39° WNW 21:03:58 10° NNW
GEOS 3 Rocket 3.7 21:01:57 68° N 21:02:27 74° NW 21:07:42 10° SW
H-2A R/B 3.3 21:05:00 33° NNE 21:05:00 33° NNE 21:08:22 10° N
ATLAS CENTAUR R/B 3.7 21:01:05 10° NW 21:03:20 16° N 21:03:20 16° N
NOSS 3-1 (C) 4.3 21:02:13 10° NW 21:09:25 59° SW 21:11:48 44° S
Cosmos 2341 Rocket 4.0 21:11:39 64° SSW 21:12:44 85° W 21:19:12 10° N
Cosmos 2154 Rocket 4.4 21:12:20 10° SSW 21:18:37 63° WNW 21:24:56 10° N
Cosmos 2237 Rocket 3.2 21:13:23 10° NW 21:18:43 41° WSW 21:19:36 38° SW
Cosmos 841 Rocket 4.2 21:16:44 10° NNW 21:21:09 50° W 21:21:09 50° W
Cosmos 1727 Rocket 4.3 21:21:09 10° N 21:26:15 59° N 21:26:15 59° N
ARGOS 3.9 21:32:29 48° NNW 21:32:29 48° NNW 21:36:21 10° NNW
Cosmos 2219 Rocket 4.3 21:30:48 10° NW 21:34:49 20° W 21:37:08 16° SW
Cosmos 2219 4.4 21:36:10 10° WSW 21:41:35 41° NW 21:46:02 15° NNE
SL-16 R/B 3.3 21:46:58 10° NW 21:51:08 41° WNW 21:51:08 41° WNW
Terra 4.3 22:13:15 17° NNW 22:13:15 17° NNW 22:14:22 10° NNW
USA 215 4.2 22:34:29 42° WNW 22:34:29 42° WNW 22:38:33 10° WNW
H-2A R/B 4.3 22:45:38 22° NW 22:45:38 22° NW 22:47:47 10° NNW
ATLAS 2AS CENTAUR R/B 3.7 22:39:23 10° NW 22:45:11 47° WNW 22:45:11 47° WNW
